Terug naar catalogus

DELTA 2 R/B(2)

ActiefHEO
NORAD 21966·ROCKET BODY·🇺🇸 United States

Gelanceerd May 14, 1992 vanaf Cape Canaveral Space Force Station

Loading…

Volgende Passages (komende 24 uur)

TLE

VersSource: Space-Track

Epoch: Sep 12, 2026, 11:09 UTC

1 21966U 92027C   26255.46497742 -.00000429  00000-0  00000-0 0  9993
2 21966  22.4685  66.5587 6455365  94.7946 336.4396  2.05333199257567

Volg DELTA 2 R/B(2) in realtime met AllMySat

Download on the App Store